Location: Montreal
(45.5087°N, 73.5540°W)
Time: 17:19:58
(UTC-04:00)

Envisat - Pass Details

Date: 01 February 2023
Orbit: 763 x 765 km, 98.2° (Epoch: 20 March)

Event Time Altitude Azimuth Distance (km) Brightness Sun altitude
Rises 03:38:29 0° 18° (NNE) 3,243 6.6 -38.0°
Reaches altitude 10° 03:40:53 10° 24° (NNE) 2,312 5.8 -37.6°
Enters shadow 03:41:53 16° 28° (NNE) 1,938 5.4 -37.5°
